* Astronomy

Members Login
Username 
 
Password 
    Remember Me  
Post Info TOPIC: Three New TNOS


L

Posts: 131433
Date:
Three New TNOS
Permalink  
 


Orbital elements:
2004 HM79
Epoch 2011 Aug. 27.0 TT = JDT 2455800.5                 MPC
M 132.17440              (2000.0)            P               Q
n   0.00450147     Peri.  242.62004     +0.19776801     -0.98023258
a  36.3273120      Node   195.97650     +0.90645453     +0.18507036
e   0.0816221      Incl.    1.17599     +0.37313269     +0.06995040
P 219              H    7.6           G   0.15           U   4

2005 CF81
Epoch 2011 Aug. 27.0 TT = JDT 2455800.5                 MPC
M  36.01441              (2000.0)            P               Q
n   0.00448040     Peri.    0.23478     -0.34112434     -0.93999458
a  36.4410892      Node   109.71062     +0.86243829     -0.31578266
e   0.0639881      Incl.    0.40546     +0.37394436     -0.12919563
P 220              H    8.4           G   0.15           U   4

2005 GH228
Epoch 2011 Aug. 27.0 TT = JDT 2455800.5                 MPC
M 345.96040              (2000.0)            P               Q
n   0.00444289     Peri.  209.15159     -0.92938305     -0.29657944
a  36.6459215      Node   311.85066     +0.36910109     -0.74123392
e   0.1874370      Incl.   17.15781     +0.00339712     -0.60217349
P 222              H    8.5           G   0.15           U   3

MPEC 2011 - K24



__________________
Page 1 of 1  sorted by
Quick Reply

Please log in to post quick replies.



Create your own FREE Forum
Report Abuse
Powered by ActiveBoard